Location: Valencia
(39.4696°N, 0.3770°W)
Time: 01:38:30
(UTC+02:00)

ISS - Visible Passes

Search period start: 19 April 2014 00:00
Search period end: 29 April 2014 00:00
Orbit: 414 x 419 km, 51.6° (Epoch: 18 April)

Date Brightness Start Highest point End Pass type
(mag) Time Alt. Az. Time Alt. Az. Time Alt. Az.
19 Apr -1.4 22:04:02 10° NNW 22:06:46 22° NNE 22:08:05 18° ENE visible
19 Apr -0.1 23:40:25 10° WNW 23:40:59 14° WNW 23:40:59 14° WNW visible
20 Apr -1.0 21:15:52 10° NNW 21:18:10 17° NNE 21:20:28 10° ENE visible
20 Apr -2.3 22:51:58 10° NW 22:54:31 48° NW 22:54:31 48° NW visible
21 Apr -2.7 22:03:36 10° NW 22:06:53 48° NNE 22:08:03 32° E visible
22 Apr -2.0 21:15:17 10° NW 21:18:18 30° NNE 21:21:19 10° E visible
22 Apr -1.7 22:52:00 10° WNW 22:54:30 29° WSW 22:54:30 29° WSW visible
23 Apr -2.9 22:03:17 10° WNW 22:06:35 58° SW 22:08:03 29° SSE visible
24 Apr -3.2 21:14:41 10° NW 21:18:03 76° NE 21:21:23 10° SE visible
24 Apr -0.5 22:53:25 10° WSW 22:54:19 11° SW 22:54:32 11° SW visible
25 Apr -1.1 22:03:25 10° W 22:05:54 19° SW 22:08:10 11° S visible
26 Apr -1.9 21:14:18 10° WNW 21:17:23 34° SW 21:20:27 10° SSE visible
